FENGYUN 1C DEB, 31041

Orbit data source: Space-Track

FENGYUN 1C DEB, 31041 is space debris in SSO originally from a launch on Mon, 10 May 1999 UTC launched from the Taiyaun Space Center, China (TSC). Fengyun 1C debris stems from the Chinese weather satellite Fengyun-1C, which was intentionally destroyed by a Chinese anti-satellite missile in 2007. This event dramatically increased the amount of space debris, with thousands of trackable fragments posing hazards to satellites and human spaceflight. The Fengyun 1C debris cloud has become a focal point in discussions about space sustainability and the need for international regulations to prevent the creation of new debris.

Loading next visibility...
Identifier
31041, 1999-025BEK
Orbit
SSO
Country
Flag of CNCN / PRC
Related business
Manufacturer
Unknown
Mission
Spacecraft
Bus & Motor
Unknown
Mass
Unknown
Launch date (UTC)
1999-05-10 (27 years ago)
Launch vehicle
Unknown
Launch site
Taiyaun Space Center, China (TSC)
Object type
Payload
Rocket body
Debris
Shape & HBR
Unknown shape, 0.1 m
Radar Cross Section
Small (<0.1 m²)

Expand to show TLE details & history
Last TLE update: 2 days ago

TLE from 2 days ago
0 FENGYUN 1C DEB
1 31041U 99025BEK 26119.04284958  .00003491  00000-0  16351-2 0  9998
2 31041  99.1887 157.7019 0083017 291.6014  67.6331 14.19091708974360
Epoch: 2026-04-29T01:01Z
TLE epoch observation values (Epoch: 2026-04-29T01:01:42.203Z)
Latitude
-0.00002°
Longitude
-74.73343°
Altitude
808.98 km
Speed
7.46 km/s
True Right ascension
10h 30m 48s
True Declination
0° 00' 00"
Sunlit
Object was in full shadow at epoch
Visualization orbit readout
Latitude
Unknown
Longitude
Unknown
Altitude
Unknown
Speed
Unknown
Apparent Right ascension
Unknown
Apparent Declination
Unknown
Sunlit
N/A
Visualization observer readout
Local Sidereal Time
00:54:49
Azimuth
Unknown
Elevation
Unknown
Doppler factor
Unknown
Orbital elements
Apogee altitude
885.413 km
Perigee altitude
765.806 km
Semi-major axis
7,203.746 km
Eccentricity
0.0083
Inclination
99.1887°
RAAN
157.7019°
Arg. of periapsis
291.6014°
True anomaly
68.51629°
Mean anomaly
67.6331°
Eccentric anomaly
68.07435°
Mean motion
3.54981 °/min
Orbital period
101.41 mins
BSTAR
0.0016351
Loading maneuver chart data...
Computing Atmospheric mass density...

Documentation

Showing up to 5 results
|